Wind_Speed
9 10 8 6 5 4 4 4 3 2 1 3 6 8 10 10 11 11 10 10 11 11 11 11 11 11 10 10 9 9 9 9 8 8 9 9 9 9 8 8 8 8 8 8
13 13 10 8 8 9 8 6 4 2 2 3 5 7 9 9 9 10 10 9 9 10 10 10 10 10 9 9 9 9 9 9 9 8 9 9 9 9 9 8 8 8 9 9
15 14 12 10 9 10 9 7 6 4 5 6 5 5 7 8 8 8 8 8 8 8 9 9 9 10 9 8 8 8 8 8 8 8 9 9 9 9 9 9 9 9 10 10
18 17 15 13 12 11 10 9 7 6 6 7 7 6 6 8 8 7 7 7 7 7 7 8 8 9 9 8 8 8 8 8 9 9 9 9 9 9 9 9 9 9 10 10
21 19 16 15 14 14 13 11 9 8 8 9 8 7 9 7 7 7 7 7 6 6 7 7 8 8 8 8 9 9 8 8 9 9 9 9 10 10 10 9 9 9 10 10
22 21 19 18 15 15 13 12 12 11 10 10 8 7 8 8 8 7 7 6 5 5 6 7 6 7 7 8 8 9 9 8 8 8 9 9 10 10 10 10 9 9 9 9
23 23 21 19 18 17 16 14 12 13 13 11 9 10 11 10 10 8 7 5 4 4 5 6 6 6 6 7 8 8 8 8 8 8 9 9 10 10 10 10 10 10 10 10
24 24 23 22 21 20 19 17 15 13 11 10 11 12 12 12 10 8 8 6 5 5 5 5 6 6 5 6 7 8 8 9 9 9 10 10 10 11 11 11 10 11 11 10
24 24 23 23 22 20 20 19 17 16 15 14 15 13 11 12 11 8 8 7 6 6 6 6 6 6 6 6 7 7 8 9 10 10 10 10 11 11 11 11 11 11 11 11
25 24 23 22 23 22 21 20 19 18 16 16 15 13 13 15 14 10 9 10 8 7 7 7 7 7 7 7 8 8 9 9 10 10 11 11 12 12 11 11 12 12 11 11
26 25 23 23 23 22 22 21 20 19 18 17 16 14 14 14 14 12 10 11 9 9 9 9 8 8 8 8 9 9 10 10 11 11 11 12 12 12 12 12 12 12 12 11
27 25 24 24 24 22 22 23 21 21 21 21 19 16 15 15 14 13 12 11 12 11 11 11 10 9 8 9 10 11 11 11 11 11 11 12 12 12 12 13 14 14 13 13
30 29 26 25 25 23 23 23 23 22 22 21 20 18 15 15 13 14 14 13 13 13 13 12 11 10 10 11 11 12 12 12 12 12 12 12 14 14 14 14 14 14 14 15
32 31 29 26 24 22 23 23 23 23 24 22 21 19 17 16 16 16 16 15 15 15 14 14 14 13 13 13 13 14 13 12 13 14 14 14 14 15 15 15 15 16 16 17
33 33 31 28 25 24 24 24 24 25 24 23 21 21 19 18 17 17 17 16 16 16 16 16 16 15 15 14 14 15 14 14 14 14 14 14 15 15 16 16 17 17 18 18
35 34 32 31 28 27 27 26 26 26 25 24 23 23 22 20 20 20 20 19 18 18 18 17 17 17 17 16 17 16 16 16 16 16 15 16 16 17 18 18 19 19 20 20
36 36 34 33 30 29 30 27 26 25 25 25 26 26 23 21 21 23 24 22 21 21 20 19 18 17 17 17 18 18 18 18 18 18 18 18 18 19 20 20 21 21 22 22
36 37 36 33 32 34 32 28 27 27 27 27 28 26 23 22 22 23 25 25 25 23 22 21 20 20 19 19 19 20 20 20 21 21 21 21 21 22 22 23 23 24 24 23
35 36 36 34 34 33 32 29 29 30 29 29 29 28 26 26 26 26 25 26 26 24 23 22 22 22 21 21 20 21 22 22 22 22 23 23 23 24 24 25 25 26 25 25
36 36 37 36 36 35 34 30 28 30 32 31 31 31 31 30 29 28 27 27 27 26 24 24 24 23 23 23 22 23 23 24 24 24 25 25 25 26 27 27 27 28 28 27
37 37 38 38 37 36 33 31 29 31 34 34 34 34 34 32 31 30 30 29 28 27 26 25 25 24 25 25 23 23 25 25 26 26 27 27 27 27 28 29 30 30 29 28
35 36 37 37 36 36 33 31 33 34 33 33 34 34 34 33 32 32 32 30 29 27 27 26 26 26 26 26 25 25 25 26 26 27 27 28 28 29 30 31 31 31 31 31
34 35 34 36 36 36 34 34 35 34 35 35 35 35 33 34 34 33 33 32 30 29 28 27 27 27 26 26 26 26 26 26 27 28 27 28 29 30 31 31 32 33 32 32
35 35 35 37 37 37 36 36 35 35 35 36 37 36 34 35 35 34 34 32 30 30 30 29 29 28 27 27 28 27 27 27 28 29 29 29 29 30 31 32 33 33 32 32
37 38 38 38 38 37 37 37 36 36 35 36 37 37 36 35 35 35 35 33 31 31 31 31 30 30 29 29 28 29 29 30 29 29 30 30 31 32 33 33 32 32 33 33
38 39 40 39 39 38 38 37 36 37 37 36 35 36 37 37 36 35 35 34 33 33 32 31 32 31 31 31 31 32 32 31 31 31 31 32 32 33 34 33 33 33 34 34
Wind_Direction
208 223 224 209 189 191 188 208 230 229 295 12 13 15 19 20 20 25 33 40 42 46 46 47 48 49 50 50 51 50 48 46 43 40 38 35 32 30 29 27 27 27 23 19
217 229 226 199 185 202 204 210 225 266 299 325 355 354 3 10 15 17 23 32 35 35 38 40 41 42 44 44 43 43 43 41 39 38 36 35 33 33 33 32 29 26 23 17
219 228 224 210 209 212 214 214 213 227 269 298 313 318 340 1 8 7 15 22 25 30 32 33 35 34 35 38 38 38 38 37 34 32 32 31 31 31 29 28 27 24 21 18
224 223 218 214 217 221 222 216 209 219 254 278 282 293 320 338 346 351 1 12 20 24 27 29 31 31 31 33 33 34 34 34 30 30 29 27 26 26 23 21 20 19 16 15
225 224 221 219 218 222 221 216 213 219 240 257 272 278 292 297 319 334 346 356 4 15 21 23 26 27 29 30 31 30 29 28 27 26 25 23 22 21 19 16 13 11 10 10
222 224 224 224 223 227 226 225 221 221 233 243 257 262 270 278 298 316 329 333 341 352 7 13 16 19 22 23 26 26 25 23 21 20 20 17 15 13 10 8 8 7 6 5
224 225 225 225 226 228 230 229 228 229 238 238 243 252 259 270 281 295 303 307 317 323 337 346 356 6 9 14 18 20 20 18 15 13 12 10 6 6 5 4 3 1 0 360
227 229 226 226 225 225 227 229 231 236 245 250 247 249 261 269 273 282 290 290 289 302 317 328 338 349 353 359 5 8 8 6 6 5 5 2 360 358 357 356 356 354 352 352
223 229 228 231 231 228 230 228 232 239 241 245 251 256 261 265 271 273 283 291 288 298 305 309 317 327 332 338 345 350 351 353 355 355 355 354 353 351 350 351 351 350 348 347
218 225 228 232 233 230 229 229 229 231 239 241 243 249 252 258 262 268 279 288 291 297 292 293 305 308 313 319 325 332 336 339 341 345 346 346 345 344 344 345 346 345 342 342
214 221 225 224 227 230 226 227 224 229 236 243 244 247 250 248 257 262 275 281 289 291 291 292 290 291 298 305 312 317 321 324 327 331 335 336 337 338 339 340 340 341 338 337
217 222 225 223 227 233 232 228 225 230 233 238 246 250 250 249 251 255 261 267 274 280 284 292 289 289 294 299 304 312 315 317 320 323 326 328 330 332 333 336 336 336 334 332
215 219 223 222 227 229 230 231 228 228 235 240 248 252 249 249 248 250 250 256 264 272 276 282 285 287 291 296 301 306 308 311 315 319 321 323 326 329 329 333 331 330 329 330
219 221 221 221 221 226 229 229 228 228 234 239 243 248 247 245 250 249 250 257 266 272 272 276 282 286 288 292 296 300 302 305 311 314 316 317 321 324 328 327 326 326 326 326
222 223 223 221 214 219 227 231 231 229 232 241 246 249 248 251 253 257 255 259 264 264 266 271 278 281 284 288 291 295 295 301 305 309 312 313 317 320 321 321 321 321 320 321
224 224 225 224 218 220 224 228 232 232 231 234 243 244 242 250 254 255 256 254 258 261 263 268 273 276 277 281 285 287 290 295 299 304 306 309 312 314 316 317 317 316 316 316
227 225 226 226 223 226 226 225 228 235 238 237 242 247 248 247 251 254 256 258 259 263 267 269 273 272 274 278 279 282 285 289 293 298 302 303 305 308 311 312 311 311 310 310
227 226 226 228 226 229 228 225 227 232 236 239 244 246 245 248 253 255 260 262 264 266 269 269 270 273 276 278 281 280 279 283 288 294 299 301 302 304 306 307 308 307 306 306
230 228 227 228 230 232 231 228 228 231 234 234 240 244 244 246 250 255 257 261 264 266 268 269 271 272 274 277 278 278 278 281 286 291 296 298 299 301 302 302 303 303 302 302
231 231 229 228 230 231 232 231 232 234 236 234 237 240 242 245 248 253 256 259 262 263 265 268 269 270 271 274 277 277 277 279 283 288 292 294 296 298 300 300 300 302 300 301
231 231 230 229 231 232 232 233 232 234 237 236 238 240 242 245 248 252 255 257 260 262 263 265 267 269 272 274 275 275 276 278 282 285 288 290 292 296 298 299 299 300 300 300
231 232 232 230 231 232 230 233 232 234 238 239 240 240 243 246 249 250 253 255 258 261 262 264 267 269 272 274 274 276 277 280 283 286 288 290 291 293 296 297 298 299 300 300
229 231 233 233 232 233 230 232 234 235 238 239 241 243 245 246 249 251 253 254 256 260 261 263 265 268 270 272 275 277 278 282 284 285 287 289 290 292 294 296 298 298 298 298
229 228 230 231 232 234 234 234 235 237 239 240 241 242 244 247 248 251 253 255 256 258 260 263 264 267 271 272 273 275 277 280 282 284 286 288 290 292 293 295 297 298 298 297
229 230 231 232 234 236 238 238 239 240 242 243 243 242 244 246 248 251 255 256 258 259 260 262 264 267 269 271 272 274 276 279 283 285 287 288 290 291 293 295 296 296 297 297
229 230 231 233 234 237 240 241 241 242 243 244 244 246 246 247 249 252 253 254 257 258 260 263 264 267 268 270 272 273 275 279 281 283 286 288 290 292 294 295 295 296 297 298
Height
5914 5916 5917 5920 5923 5926 5928 5928 5928 5927 5925 5925 5923 5921 5920 5918 5918 5916 5915 5913 5912 5912 5911 5910 5909 5908 5907 5907 5906 5905 5905 5904 5904 5903 5903 5902 5901 5900 5899 5898 5897 5896 5895 5894
5913 5914 5918 5919 5922 5925 5926 5927 5927 5927 5926 5926 5925 5924 5922 5921 5920 5919 5917 5915 5915 5914 5913 5912 5911 5910 5909 5909 5908 5907 5907 5906 5905 5905 5904 5903 5902 5901 5900 5899 5898 5897 5896 5894
5910 5914 5916 5918 5921 5923 5925 5926 5927 5928 5927 5926 5925 5924 5923 5922 5921 5920 5919 5918 5917 5916 5915 5914 5913 5912 5911 5910 5910 5909 5908 5908 5907 5906 5905 5905 5904 5902 5901 5900 5899 5898 5896 5895
5908 5912 5913 5916 5919 5920 5923 5925 5926 5927 5926 5926 5926 5925 5923 5923 5922 5921 5920 5919 5919 5918 5917 5915 5914 5914 5913 5912 5911 5911 5910 5909 5908 5907 5907 5906 5905 5903 5902 5901 5900 5899 5897 5896
5905 5908 5910 5914 5917 5919 5921 5923 5924 5925 5926 5926 5926 5925 5925 5923 5923 5922 5921 5920 5920 5919 5918 5917 5916 5915 5914 5913 5912 5912 5911 5910 5910 5909 5908 5907 5905 5904 5903 5902 5900 5899 5898 5896
5901 5905 5907 5911 5914 5916 5918 5920 5922 5923 5924 5925 5924 5925 5924 5922 5922 5923 5922 5921 5920 5920 5919 5918 5917 5916 5915 5915 5914 5913 5912 5911 5910 5909 5908 5907 5906 5905 5903 5902 5901 5899 5898 5897
5897 5900 5903 5907 5911 5913 5915 5917 5919 5919 5920 5922 5924 5924 5923 5922 5923 5922 5922 5921 5921 5920 5919 5918 5918 5917 5916 5916 5915 5914 5913 5912 5911 5910 5909 5908 5906 5905 5904 5902 5901 5900 5898 5897
5893 5897 5900 5903 5906 5910 5912 5915 5917 5918 5919 5920 5920 5921 5921 5921 5921 5921 5921 5921 5920 5920 5919 5919 5918 5917 5917 5916 5916 5915 5914 5913 5912 5910 5909 5908 5906 5905 5904 5902 5901 5899 5898 5896
5889 5893 5897 5899 5902 5906 5909 5911 5914 5917 5918 5919 5918 5919 5920 5919 5919 5919 5920 5920 5919 5919 5919 5918 5917 5917 5917 5916 5916 5915 5914 5913 5912 5910 5909 5908 5906 5905 5903 5902 5900 5899 5897 5896
5884 5888 5892 5895 5898 5901 5905 5908 5911 5912 5913 5914 5916 5916 5918 5918 5917 5918 5919 5918 5918 5918 5917 5917 5916 5916 5916 5916 5915 5914 5913 5913 5912 5910 5909 5907 5906 5904 5902 5901 5899 5898 5897 5895
5878 5883 5887 5890 5892 5896 5900 5903 5906 5908 5910 5911 5912 5916 5915 5915 5914 5915 5916 5917 5917 5917 5916 5916 5915 5914 5915 5915 5914 5914 5913 5912 5911 5910 5908 5907 5905 5903 5901 5900 5898 5897 5895 5894
5873 5878 5881 5885 5889 5892 5896 5898 5902 5905 5907 5908 5908 5912 5912 5911 5912 5914 5914 5914 5915 5915 5914 5914 5913 5912 5913 5913 5912 5912 5911 5910 5909 5908 5907 5905 5903 5902 5901 5899 5897 5896 5894 5893
5867 5872 5875 5880 5886 5888 5890 5893 5897 5901 5903 5904 5905 5908 5907 5907 5908 5910 5911 5911 5912 5912 5912 5912 5912 5912 5911 5911 5911 5910 5910 5909 5908 5906 5905 5903 5902 5901 5899 5898 5896 5894 5893 5891
5861 5865 5870 5875 5880 5884 5886 5889 5893 5896 5898 5900 5902 5903 5903 5903 5904 5905 5906 5907 5909 5910 5909 5909 5909 5909 5909 5909 5909 5908 5908 5907 5906 5904 5903 5902 5900 5899 5897 5896 5894 5892 5891 5889
5854 5859 5863 5867 5873 5878 5881 5884 5888 5891 5894 5896 5898 5898 5899 5899 5901 5902 5903 5904 5905 5906 5906 5906 5906 5906 5906 5905 5905 5905 5904 5904 5903 5902 5901 5899 5898 5897 5895 5894 5892 5890 5888 5886
5847 5852 5856 5860 5865 5870 5874 5878 5882 5885 5889 5892 5893 5892 5894 5896 5897 5898 5900 5901 5901 5901 5902 5902 5902 5902 5902 5902 5902 5902 5901 5901 5900 5899 5898 5896 5895 5894 5892 5891 5889 5887 5885 5883
5840 5845 5849 5854 5860 5863 5866 5872 5876 5880 5883 5886 5887 5887 5889 5891 5892 5892 5893 5895 5896 5897 5897 5898 5898 5897 5897 5898 5898 5898 5898 5897 5897 5895 5894 5893 5891 5890 5888 5887 5885 5883 5881 5879
5832 5836 5842 5847 5852 5855 5862 5867 5870 5874 5877 5880 5881 5882 5884 5885 5885 5886 5888 5890 5890 5891 5892 5893 5893 5893 5892 5893 5893 5893 5893 5893 5892 5891 5890 5889 5887 5886 5884 5882 5880 5878 5876 5874
5825 5829 5834 5840 5844 5848 5854 5859 5862 5865 5868 5872 5875 5876 5878 5880 5880 5881 5882 5884 5885 5886 5886 5887 5887 5888 5888 5888 5888 5888 5888 5888 5887 5886 5885 5883 5882 5880 5879 5877 5874 5872 5870 5868
5817 5822 5827 5832 5836 5840 5846 5851 5854 5858 5859 5863 5866 5868 5870 5871 5873 5875 5876 5878 5878 5878 5881 5881 5882 5882 5881 5882 5882 5882 5882 5881 5881 5880 5879 5877 5876 5874 5872 5870 5868 5866 5864 5862
5809 5814 5818 5823 5827 5831 5837 5842 5847 5850 5851 5854 5856 5859 5862 5863 5866 5868 5869 5871 5872 5873 5874 5875 5876 5876 5876 5876 5876 5876 5876 5875 5874 5873 5872 5871 5869 5867 5865 5863 5861 5859 5857 5855
5801 5806 5811 5815 5819 5825 5829 5832 5836 5838 5841 5845 5847 5849 5853 5856 5858 5860 5862 5864 5865 5866 5868 5868 5869 5870 5870 5869 5869 5869 5869 5868 5867 5866 5865 5864 5862 5861 5859 5857 5854 5852 5849 5848
5794 5799 5803 5808 5812 5816 5819 5823 5826 5829 5833 5837 5839 5842 5846 5848 5850 5852 5854 5856 5858 5859 5861 5861 5862 5862 5863 5863 5862 5862 5862 5861 5860 5859 5858 5857 5855 5853 5851 5849 5847 5844 5842 5840
5786 5790 5793 5798 5802 5807 5811 5814 5817 5821 5825 5828 5831 5834 5837 5840 5842 5844 5846 5848 5850 5851 5853 5853 5854 5855 5855 5855 5855 5854 5854 5854 5853 5852 5851 5849 5848 5846 5844 5841 5839 5836 5834 5832
5776 5781 5784 5788 5793 5798 5802 5805 5809 5812 5816 5819 5822 5825 5828 5831 5834 5836 5837 5840 5842 5843 5845 5845 5846 5846 5847 5847 5847 5847 5846 5846 5845 5844 5843 5841 5840 5838 5836 5834 5831 5829 5827 5824
5767 5771 5775 5779 5784 5788 5792 5796 5800 5803 5806 5810 5813 5816 5819 5822 5825 5827 5829 5831 5833 5834 5836 5837 5837 5838 5839 5839 5839 5838 5837 5837 5836 5835 5834 5833 5831 5830 5828 5825 5823 5820 5818 5815